FW6490 Weather Reports


Display with metric or nautical units.
time (UTC)temp
F
wind
direction
speed
MPH
gust
MPH
rain 1hr
in
rain 24hr
in
rain mn
in
humidity
%
barometer
mb
20260902100718 53 309 0.0 0.0 0.00 0.00 0.00 93 1011.5
20260902100210 53 309 0.0 0.0 0.00 0.00 0.00 93 1011.5
20260902095708 53 309 0.0 0.0 0.00 0.00 0.00 93 1011.7
20260902095205 53 309 0.0 0.0 0.00 0.00 0.00 93 1011.7
20260902094708 53 309 0.0 0.0 0.00 0.00 0.00 93 1011.7
20260902094201 53 309 0.0 0.0 0.00 0.00 0.00 93 1011.8
20260902093659 53 309 0.0 0.0 0.00 0.00 0.00 93 1011.8
20260902093157 53 309 0.0 0.0 0.00 0.00 0.00 93 1011.8
20260902092656 53 309 0.0 0.0 0.00 0.00 0.00 93 1011.8
20260902091655 53 309 0.0 0.0 0.00 0.00 0.00 93 1011.8
20260902091150 53 309 0.0 0.0 0.00 0.00 0.00 92 1011.9
20260902090650 53 309 0.0 0.0 0.00 0.00 0.00 92 1011.9
20260902090152 53 309 0.0 0.0 0.00 0.00 0.00 92 1011.9
20260902085647 53 309 0.0 0.0 0.00 0.00 0.00 92 1012.0
20260902084637 53 309 0.0 0.0 0.00 0.00 0.00 92 1012.0
20260902084134 53 309 0.0 0.0 0.00 0.00 0.00 92 1012.0
20260902083629 53 309 0.0 0.0 0.00 0.00 0.00 92 1012.0
20260902083130 53 309 0.0 0.0 0.00 0.00 0.00 92 1012.0
20260902082626 54 309 0.0 0.0 0.00 0.00 0.00 92 1012.0
20260902082124 54 309 0.0 0.0 0.00 0.00 0.00 92 1012.0
20260902081621 54 309 0.0 0.0 0.00 0.00 0.00 92 1012.0
20260902081123 54 309 0.0 0.0 0.00 0.00 0.00 92 1011.6
20260902080618 54 309 0.0 0.0 0.00 0.00 0.00 92 1011.6
20260902080112 54 309 0.0 0.0 0.00 0.00 0.00 92 1011.6
20260902075112 54 309 0.0 0.0 0.00 0.00 0.00 92 1011.6
20260902074606 54 309 0.0 0.0 0.00 0.00 0.00 91 1011.6
20260902074106 55 309 0.0 0.0 0.00 0.00 0.00 91 1011.6
20260902073609 55 309 0.0 0.0 0.00 0.00 0.00 91 1011.6
20260902073104 55 309 0.0 0.0 0.00 0.00 0.00 91 1011.6
20260902072606 55 309 0.0 0.0 0.00 0.00 0.00 91 1011.6
20260902072059 55 309 0.0 0.0 0.00 0.00 0.00 91 1011.6
20260902071557 55 309 0.0 0.0 0.00 0.00 0.00 91 1011.6
20260902071056 56 309 0.0 0.0 0.00 0.00 0.00 91 1011.6
20260902070059 56 309 0.0 0.0 0.00 0.00 0.00 91 1011.6
20260902065556 56 309 0.0 0.0 0.00 0.00 0.00 90 1011.6
20260902065050 56 309 0.0 0.0 0.00 0.00 0.00 90 1011.6
20260902064544 56 309 0.0 0.0 0.00 0.00 0.00 90 1011.6
20260902063543 56 309 0.0 0.0 0.00 0.00 0.00 90 1011.6
20260902062534 56 309 0.0 1.0 0.00 0.00 0.00 90 1011.6
20260902062035 57 309 0.0 0.0 0.00 0.00 0.00 89 1011.6
20260902061029 57 309 0.0 0.0 0.00 0.00 0.00 89 1011.8
20260902060026 58 309 0.0 0.0 0.00 0.00 0.00 89 1011.8
20260902055524 58 309 0.0 0.0 0.00 0.00 0.00 89 1011.8
20260902055024 58 309 0.0 0.0 0.00 0.00 0.00 88 1011.8
20260902054521 58 309 0.0 0.0 0.00 0.00 0.00 88 1011.8
20260902054018 59 309 0.0 0.0 0.00 0.00 0.00 88 1012.1
20260902053017 59 309 0.0 0.0 0.00 0.00 0.00 88 1012.1
20260902052510 59 309 0.0 0.0 0.00 0.00 0.00 88 1012.1
20260902052004 59 309 0.0 0.0 0.00 0.00 0.00 88 1012.1
20260902051505 60 309 0.0 0.0 0.00 0.00 0.00 88 1012.1
20260902051001 60 309 0.0 0.0 0.00 0.00 0.00 88 1012.1
20260902050503 60 309 0.0 0.0 0.00 0.00 0.00 88 1012.1
20260902045956 60 309 0.0 1.0 0.00 0.00 0.00 87 1012.1
20260902044458 60 309 0.0 3.0 0.00 0.00 0.00 87 1011.9
20260902043957 60 309 1.0 3.0 0.00 0.00 0.00 87 1011.7
20260902043454 61 309 1.0 3.0 0.00 0.00 0.00 87 1011.7
20260902042448 61 309 2.0 6.0 0.00 0.00 0.00 86 1011.6
20260902041448 61 312 1.0 4.0 0.00 0.00 0.00 86 1011.6
20260902040944 61 311 1.0 4.0 0.00 0.00 0.00 86 1011.5
20260902040444 61 311 1.0 4.0 0.00 0.00 0.00 86 1011.5
20260902035941 61 311 1.0 3.0 0.00 0.00 0.00 86 1011.5
20260902035440 61 311 1.0 4.0 0.00 0.00 0.00 86 1011.1
20260902034937 61 311 1.0 4.0 0.00 0.00 0.00 85 1011.1
20260902034436 61 310 1.0 4.0 0.00 0.00 0.00 85 1011.1
20260902033937 61 310 1.0 4.0 0.00 0.00 0.00 85 1011.0
20260902033431 61 306 2.0 5.0 0.00 0.00 0.00 85 1011.0
20260902032930 61 306 2.0 5.0 0.00 0.00 0.00 85 1011.0
20260902032429 61 306 1.0 4.0 0.00 0.00 0.00 85 1010.9
20260902031929 61 306 1.0 5.0 0.00 0.00 0.00 84 1010.9
20260902031429 61 306 1.0 5.0 0.00 0.00 0.00 84 1010.9
20260902030927 62 306 1.0 4.0 0.00 0.00 0.00 84 1010.8
20260902025923 62 306 2.0 4.0 0.00 0.00 0.00 83 1010.8
20260902025423 62 306 2.0 5.0 0.00 0.00 0.00 82 1010.7
20260902024920 62 308 3.0 7.0 0.00 0.00 0.00 82 1010.7
20260902024417 62 309 2.0 7.0 0.00 0.00 0.00 82 1010.7
20260902023915 62 317 2.0 5.0 0.00 0.00 0.00 82 1010.7
20260902023411 62 317 2.0 7.0 0.00 0.00 0.00 82 1010.7
20260902022910 62 320 3.0 7.0 0.00 0.00 0.00 81 1010.7
20260902022410 63 296 3.0 7.0 0.00 0.00 0.00 80 1010.7
20260902021908 63 319 3.0 8.0 0.00 0.00 0.00 80 1010.7
20260902020909 63 274 4.0 11.0 0.00 0.00 0.00 77 1010.7
20260902020404 63 280 4.0 11.0 0.00 0.00 0.00 77 1010.7
20260902015904 63 265 4.0 11.0 0.00 0.00 0.00 75 1010.7
20260902014903 64 267 3.0 12.0 0.00 0.00 0.00 72 1010.6
20260902014359 65 305 3.0 8.0 0.00 0.00 0.00 70 1010.7
20260902013901 65 309 3.0 10.0 0.00 0.00 0.00 69 1010.7
20260902013400 65 308 3.0 10.0 0.00 0.00 0.00 69 1010.7
20260902012859 66 313 4.0 10.0 0.00 0.00 0.00 68 1010.7
20260902012359 67 313 4.0 7.0 0.00 0.00 0.00 66 1010.7
20260902011854 67 315 4.0 8.0 0.00 0.00 0.00 65 1010.7
20260902011355 68 306 4.0 8.0 0.00 0.00 0.00 64 1010.7
20260902010852 68 309 4.0 9.0 0.00 0.00 0.00 62 1010.7
20260902010349 68 306 4.0 9.0 0.00 0.00 0.00 63 1010.7
20260902005845 69 306 4.0 9.0 0.00 0.00 0.00 62 1010.7
20260902005345 69 324 4.0 11.0 0.00 0.00 0.00 61 1010.7
20260902004845 69 339 4.0 11.0 0.00 0.00 0.00 60 1010.7
20260902004344 69 321 4.0 9.0 0.00 0.00 0.00 60 1010.7
20260902003839 69 319 4.0 8.0 0.00 0.00 0.00 60 1010.7
20260902003340 70 348 4.0 13.0 0.00 0.00 0.00 60 1010.7
20260902002839 70 267 4.0 13.0 0.00 0.00 0.00 59 1010.7
20260902002338 70 325 5.0 12.0 0.00 0.00 0.00 58 1010.7
20260902001836 70 301 4.0 9.0 0.00 0.00 0.00 58 1010.7
20260902001339 71 340 4.0 10.0 0.00 0.00 0.00 57 1010.7
20260902000831 71 317 4.0 10.0 0.00 0.00 0.00 56 1010.7
20260902000329 71 315 4.0 9.0 0.00 0.00 0.00 55 1010.7
20260901235828 71 317 4.0 12.0 0.00 0.00 0.00 56 1010.7
20260901235327 70 324 5.0 12.0 0.00 0.00 0.00 57 1010.7
20260901234824 71 309 5.0 11.0 0.00 0.00 0.00 56 1010.7
20260901234323 71 315 5.0 11.0 0.00 0.00 0.00 56 1010.7
20260901233821 72 311 4.0 11.0 0.00 0.00 0.00 56 1010.7
20260901233321 72 317 4.0 11.0 0.00 0.00 0.00 56 1010.7
20260901232323 72 355 4.0 10.0 0.00 0.00 0.00 56 1010.7
20260901231818 71 331 5.0 10.0 0.00 0.00 0.00 56 1010.7
20260901231319 72 306 5.0 10.0 0.00 0.00 0.00 55 1010.7
20260901230814 72 334 4.0 10.0 0.00 0.00 0.00 54 1010.7
20260901230315 72 318 4.0 10.0 0.00 0.00 0.00 55 1010.7
20260901225815 72 322 5.0 11.0 0.00 0.00 0.00 54 1010.7
20260901225310 72 321 4.0 11.0 0.00 0.00 0.00 55 1010.7
20260901224809 73 311 4.0 10.0 0.00 0.00 0.00 54 1010.7
20260901224307 73 343 4.0 10.0 0.00 0.00 0.00 53 1010.9
20260901223259 73 323 4.0 10.0 0.00 0.00 0.00 55 1010.8
20260901222801 73 351 4.0 10.0 0.00 0.00 0.00 55 1011.0
20260901222301 72 348 4.0 9.0 0.00 0.00 0.00 56 1011.0
20260901221801 72 329 4.0 10.0 0.00 0.00 0.00 55 1011.0
20260901221259 72 295 5.0 10.0 0.00 0.00 0.00 55 1011.1
20260901220752 72 328 5.0 11.0 0.00 0.00 0.00 56 1011.1
20260901220253 72 312 5.0 11.0 0.00 0.00 0.00 55 1011.1
20260901215751 72 340 5.0 10.0 0.00 0.00 0.00 54 1011.2
20260901215250 72 312 5.0 10.0 0.00 0.00 0.00 54 1011.2
20260901214747 72 355 5.0 10.0 0.00 0.00 0.00 54 1011.2
20260901214246 72 280 5.0 10.0 0.00 0.00 0.00 54 1011.2
20260901213744 72 323 5.0 11.0 0.00 0.00 0.00 53 1011.2
20260901213247 72 315 5.0 12.0 0.00 0.00 0.00 53 1011.2
20260901212744 73 306 5.0 12.0 0.00 0.00 0.00 53 1011.2
20260901212245 72 315 5.0 11.0 0.00 0.00 0.00 54 1011.2
20260901211745 73 309 5.0 11.0 0.00 0.00 0.00 53 1011.2
20260901211242 73 340 5.0 11.0 0.00 0.00 0.00 54 1011.2
20260901210741 73 312 5.0 11.0 0.00 0.00 0.00 54 1011.2
20260901210238 73 335 5.0 11.0 0.00 0.00 0.00 54 1011.2
20260901205737 73 302 5.0 13.0 0.00 0.00 0.00 53 1011.2
20260901204734 73 312 5.0 11.0 0.00 0.00 0.00 53 1011.2
20260901203731 74 329 5.0 12.0 0.00 0.00 0.00 52 1011.4
20260901203231 74 317 4.0 10.0 0.00 0.00 0.00 53 1011.4
20260901202730 75 350 4.0 9.0 0.00 0.00 0.00 53 1011.4
20260901202228 74 306 4.0 8.0 0.00 0.00 0.00 54 1011.4
20260901201225 74 355 4.0 9.0 0.00 0.00 0.00 55 1011.4
20260901200725 74 328 4.0 8.0 0.00 0.00 0.00 54 1011.4
20260901200221 74 323 4.0 8.0 0.00 0.00 0.00 54 1011.4
20260901195219 75 282 3.0 10.0 0.00 0.00 0.00 53 1011.5
20260901194719 75 331 3.0 10.0 0.00 0.00 0.00 53 1011.5
20260901194217 75 348 3.0 10.0 0.00 0.00 0.00 54 1011.7
20260901193715 74 330 3.0 8.0 0.00 0.00 0.00 55 1011.7
20260901193211 74 322 3.0 8.0 0.00 0.00 0.00 54 1011.7
20260901192711 74 317 4.0 10.0 0.00 0.00 0.00 53 1011.8
20260901192213 74 308 4.0 10.0 0.00 0.00 0.00 53 1011.8
20260901191711 74 327 3.0 7.0 0.00 0.00 0.00 52 1011.8
20260901190708 73 344 3.0 7.0 0.00 0.00 0.00 54 1011.7
20260901190213 73 314 3.0 6.0 0.00 0.00 0.00 54 1011.7
20260901185706 73 348 3.0 9.0 0.00 0.00 0.00 53 1011.7
20260901185200 72 347 3.0 9.0 0.00 0.00 0.00 55 1011.7
20260901184659 73 321 3.0 7.0 0.00 0.00 0.00 54 1011.7
20260901184205 72 318 3.0 10.0 0.00 0.00 0.00 53 1011.7
20260901183659 72 290 3.0 10.0 0.00 0.00 0.00 55 1011.7
20260901183155 71 340 3.0 7.0 0.00 0.00 0.00 55 1011.7
20260901182654 71 306 3.0 7.0 0.00 0.00 0.00 57 1011.8
20260901182151 70 323 3.0 8.0 0.00 0.00 0.00 56 1011.8
20260901181649 70 307 4.0 8.0 0.00 0.00 0.00 57 1011.8
20260901181149 70 342 4.0 8.0 0.00 0.00 0.00 58 1011.8
20260901180648 70 315 3.0 7.0 0.00 0.00 0.00 59 1011.8
20260901180149 71 313 4.0 7.0 0.00 0.00 0.00 58 1011.8
20260901175146 70 42 4.0 11.0 0.00 0.00 0.00 61 1011.7
20260901174138 69 303 5.0 8.0 0.00 0.00 0.00 61 1011.7
20260901173638 70 311 5.0 10.0 0.00 0.00 0.00 58 1011.7
20260901173138 70 313 4.0 10.0 0.00 0.00 0.00 58 1011.7
20260901172134 72 324 2.0 7.0 0.00 0.00 0.00 57 1011.3
20260901171634 72 351 3.0 7.0 0.00 0.00 0.00 60 1011.3
20260901171135 71 19 3.0 7.0 0.00 0.00 0.00 60 1011.5
20260901170631 71 338 3.0 7.0 0.00 0.00 0.00 61 1011.5
20260901170129 70 344 2.0 7.0 0.00 0.00 0.00 62 1011.5
20260901165628 70 355 2.0 6.0 0.00 0.00 0.00 62 1011.3
20260901165127 69 335 2.0 7.0 0.00 0.00 0.00 64 1011.3
20260901164625 69 335 2.0 7.0 0.00 0.00 0.00 63 1011.3
20260901163623 69 330 1.0 5.0 0.00 0.00 0.00 65 1011.3
20260901163121 68 42 1.0 7.0 0.00 0.00 0.00 68 1011.3
20260901162619 67 42 1.0 7.0 0.00 0.00 0.00 68 1011.3
20260901161618 66 92 1.0 6.0 0.00 0.00 0.00 72 1011.3
20260901161114 66 92 1.0 6.0 0.00 0.00 0.00 71 1011.3
20260901155108 66 246 1.0 2.0 0.00 0.00 0.00 74 1011.2
20260901154107 65 270 0.0 0.0 0.00 0.00 0.00 75 1011.2
20260901153602 64 270 0.0 0.0 0.00 0.00 0.00 75 1011.2
20260901153059 64 270 0.0 0.0 0.00 0.00 0.00 78 1011.2
20260901152557 64 270 0.0 0.0 0.00 0.00 0.00 77 1011.1
20260901151556 62 270 0.0 0.0 0.00 0.00 0.00 81 1011.1
20260901150048 61 270 0.0 0.0 0.00 0.00 0.00 85 1011.1
20260901145045 59 270 0.0 0.0 0.00 0.00 0.00 89 1011.0
20260901144542 58 270 0.0 0.0 0.00 0.00 0.00 89 1011.0
20260901143533 56 270 0.0 0.0 0.00 0.00 0.00 91 1010.8
20260901143029 56 270 0.0 0.0 0.00 0.00 0.00 92 1010.7
20260901142524 55 270 0.0 0.0 0.00 0.00 0.00 91 1010.6
20260901142021 55 270 0.0 0.0 0.00 0.00 0.00 91 1010.6
20260901141518 54 270 0.0 0.0 0.00 0.00 0.00 91 1010.6
20260901141011 54 270 0.0 0.0 0.00 0.00 0.00 91 1010.6
20260901140507 54 270 0.0 0.0 0.00 0.00 0.00 91 1010.6
20260901140006 54 270 0.0 0.0 0.00 0.00 0.00 90 1010.6
20260901135001 54 270 0.0 0.0 0.00 0.00 0.00 90 1010.5
20260901134501 55 270 0.0 0.0 0.00 0.00 0.00 90 1010.5
20260901133959 55 270 0.0 0.0 0.00 0.00 0.00 90 1010.5
20260901133000 55 270 0.0 0.0 0.00 0.00 0.00 90 1010.5
20260901131950 55 270 0.0 0.0 0.00 0.00 0.00 90 1010.5
20260901131447 55 270 0.0 0.0 0.00 0.00 0.00 90 1010.5
20260901130939 55 270 0.0 0.0 0.00 0.00 0.00 90 1010.5
20260901125936 55 270 0.0 0.0 0.00 0.00 0.00 90 1010.5
20260901125435 55 270 0.0 0.0 0.00 0.00 0.00 90 1010.5
20260901124931 55 270 0.0 0.0 0.00 0.00 0.00 90 1010.5
20260901123426 56 270 0.0 0.0 0.00 0.00 0.00 90 1010.4
20260901122920 56 270 0.0 0.0 0.00 0.00 0.00 90 1010.4
20260901122419 56 270 0.0 0.0 0.00 0.00 0.00 90 1010.2
20260901121915 56 270 0.0 0.0 0.00 0.00 0.00 90 1010.2
20260901121415 56 270 0.0 0.0 0.00 0.00 0.00 90 1010.2
20260901120407 56 270 0.0 0.0 0.00 0.00 0.00 89 1010.0
20260901115906 56 270 0.0 3.0 0.00 0.00 0.00 89 1010.0
20260901114855 56 270 0.0 0.0 0.00 0.00 0.00 89 1010.0
20260901113859 56 270 0.0 0.0 0.00 0.00 0.00 88 1010.1
20260901113356 57 270 0.0 0.0 0.00 0.00 0.00 88 1010.1
20260901112849 57 270 0.0 0.0 0.00 0.00 0.00 88 1010.1
20260901112348 57 270 0.0 0.0 0.00 0.00 0.00 88 1010.1
20260901111847 57 270 0.0 0.0 0.00 0.00 0.00 88 1010.1
20260901111346 57 270 0.0 0.0 0.00 0.00 0.00 88 1010.1
20260901110839 57 270 0.0 0.0 0.00 0.00 0.00 88 1010.1
20260901110342 57 270 0.0 0.0 0.00 0.00 0.00 88 1010.1
20260901105834 57 270 0.0 0.0 0.00 0.00 0.00 88 1010.1
20260901105338 57 270 0.0 0.0 0.00 0.00 0.00 88 1010.1
20260901104335 57 270 0.0 0.0 0.00 0.00 0.00 88 1010.1
20260901103329 57 270 0.0 0.0 0.00 0.00 0.00 88 1010.1
20260901102829 57 270 0.0 0.0 0.00 0.00 0.00 88 1010.0
20260901102329 56 270 0.0 0.0 0.00 0.00 0.00 88 1010.0
20260901101828 57 270 0.0 0.0 0.00 0.00 0.00 89 1010.0
20260901101331 57 270 0.0 0.0 0.00 0.00 0.00 89 1010.0